User: anonymous   Login
Location: Unspecified
(0.0000°N, 0.0000°E)
Time: 01:27:05
(UTC+00:00)
Language:

Hubble Space Telescope - Orbit

View from above orbital plane
View from above orbital plane
View from above satellite
View from above satellite

Ground track
Ground track

The orbit data is extracted from the following two-line orbital elements,

1 20580U 90037B   20049.29041309 +.00000423 +00000-0 +14790-4 0  9991
2 20580 028.4706 034.4066 0002480 233.7223 254.9945 15.09339570437793
Epoch (UTC): 18 February 2020 06:58:11
Eccentricity: 0.0002480
inclination: 28.4706°
perigee height: 536 km
apogee height: 540 km
right ascension of ascending node: 34.4066°
argument of perigee: 233.7223°
revolutions per day: 15.09339570
mean anomaly at epoch: 254.9945°
orbit number at epoch: 43779

The dashed part of the orbit path shows where the satellite is in the earth's shadow,  

DLR